Location: Middlebury
(44.0153°N, 73.1678°W)
Time: 07:53:32
(UTC-04:00)

UWE-3 - Pass Details

Date: 24 June 2024
Orbit: 566 x 652 km, 97.8° (Epoch: 12 July)

Event Time Altitude Azimuth Distance (km) Brightness Sun altitude
Rises 04:11:46 0° 3° (N) 2,872 ? -9.0°
Reaches altitude 10° 04:14:09 10° 353° (N) 1,949 ? -8.7°
Maximum altitude 04:17:51 30° 292° (WNW) 1,059 ? -8.2°
Drops below altitude 10° 04:21:27 10° 230° (SW) 1,894 ? -7.7°
Enters shadow 04:21:30 10° 230° (SW) 1,912 ? -7.7°
